CW2972 Weather Reports


Display with metric or nautical units.
time (UTC)temp
F
wind
direction
speed
MPH
gust
MPH
rain 1hr
in
rain 24hr
in
rain mn
in
humidity
%
barometer
mb
20260505220622 75 217 2.0 7.0 0.00 0.00 0.00 57 1008.2
20260505220443 75 217 2.0 7.0 0.00 0.00 0.00 58 1008.3
20260505220244 75 218 2.0 7.0 0.00 0.00 0.00 58 1008.3
20260505220022 75 216 2.0 5.0 0.00 0.00 0.00 59 1008.3
20260505215822 75 218 2.0 5.0 0.00 0.00 0.00 59 1008.2
20260505215622 75 216 2.0 6.0 0.00 0.00 0.00 59 1008.3
20260505215422 75 214 2.0 6.0 0.00 0.00 0.00 58 1008.2
20260505215222 75 213 2.0 6.0 0.00 0.00 0.00 59 1008.2
20260505215022 75 212 2.0 6.0 0.00 0.00 0.00 58 1008.2
20260505214822 75 209 2.0 6.0 0.00 0.00 0.00 59 1008.2
20260505214622 75 204 2.0 5.0 0.00 0.00 0.00 60 1008.3
20260505214422 75 202 2.0 5.0 0.00 0.00 0.00 60 1008.3
20260505214222 75 203 2.0 5.0 0.00 0.00 0.00 59 1008.3
20260505214043 75 199 2.0 5.0 0.00 0.00 0.00 60 1008.3
20260505213822 75 196 2.0 5.0 0.00 0.00 0.00 58 1008.2
20260505213622 75 191 2.0 5.0 0.00 0.00 0.00 58 1008.3
20260505213422 75 194 2.0 5.0 0.00 0.00 0.00 58 1008.3
20260505213222 75 189 2.0 5.0 0.00 0.00 0.00 58 1008.4
20260505213022 75 187 2.0 5.0 0.00 0.00 0.00 59 1008.5
20260505212822 75 185 2.0 5.0 0.00 0.00 0.00 58 1008.4
20260505212622 75 184 2.0 5.0 0.00 0.00 0.00 57 1008.5
20260505212422 75 178 2.0 5.0 0.00 0.00 0.00 58 1008.5
20260505212223 76 183 2.0 5.0 0.00 0.00 0.00 57 1008.4
20260505212022 76 192 2.0 6.0 0.00 0.00 0.00 57 1008.5
20260505211822 76 203 2.0 6.0 0.00 0.00 0.00 58 1008.4
20260505211622 76 210 2.0 6.0 0.00 0.00 0.00 58 1008.4
20260505211422 76 214 2.0 6.0 0.00 0.00 0.00 58 1008.4
20260505211222 76 214 2.0 6.0 0.00 0.00 0.00 58 1008.5
20260505211043 75 213 2.0 5.0 0.00 0.00 0.00 58 1008.4
20260505210822 75 210 2.0 3.0 0.00 0.00 0.00 59 1008.4
20260505210622 75 214 2.0 4.0 0.00 0.00 0.00 58 1008.4
20260505210422 75 218 2.0 5.0 0.00 0.00 0.00 58 1008.5
20260505210222 75 219 2.0 5.0 0.00 0.00 0.00 57 1008.6
20260505210022 75 215 2.0 6.0 0.00 0.00 0.00 58 1008.6
20260505205822 75 215 3.0 6.0 0.00 0.00 0.00 58 1008.7
20260505205622 75 214 3.0 8.0 0.00 0.00 0.00 58 1008.7
20260505205443 75 211 3.0 8.0 0.00 0.00 0.00 58 1008.6
20260505205243 75 212 3.0 8.0 0.00 0.00 0.00 56 1008.7
20260505205023 75 212 3.0 8.0 0.00 0.00 0.00 57 1008.7
20260505204822 75 212 3.0 8.0 0.00 0.00 0.00 57 1008.8
20260505204643 75 210 3.0 6.0 0.00 0.00 0.00 56 1008.6
20260505204422 75 208 3.0 6.0 0.00 0.00 0.00 55 1008.6
20260505204222 75 208 3.0 6.0 0.00 0.00 0.00 56 1008.7
20260505204044 75 212 3.0 6.0 0.00 0.00 0.00 57 1008.8
20260505203822 75 211 3.0 6.0 0.00 0.00 0.00 56 1008.9
20260505203622 75 211 3.0 6.0 0.00 0.00 0.00 55 1008.9
20260505203422 75 211 3.0 8.0 0.00 0.00 0.00 56 1008.9
20260505203222 75 210 3.0 8.0 0.00 0.00 0.00 56 1008.9
20260505203043 75 209 3.0 8.0 0.00 0.00 0.00 57 1009.0
20260505202822 75 209 3.0 8.0 0.00 0.00 0.00 56 1008.9
20260505202622 75 210 4.0 8.0 0.00 0.00 0.00 55 1008.9
20260505202422 75 214 4.0 8.0 0.00 0.00 0.00 55 1009.0
20260505202222 75 211 4.0 8.0 0.00 0.00 0.00 55 1009.0
20260505202022 75 212 4.0 8.0 0.00 0.00 0.00 55 1009.0
20260505201823 76 213 4.0 9.0 0.00 0.00 0.00 54 1008.9
20260505201622 76 212 4.0 9.0 0.00 0.00 0.00 55 1009.0
20260505201443 76 211 3.0 9.0 0.00 0.00 0.00 55 1009.0
20260505201222 76 214 3.0 9.0 0.00 0.00 0.00 55 1009.0
20260505201022 76 210 3.0 9.0 0.00 0.00 0.00 55 1009.1
20260505200822 76 212 3.0 7.0 0.00 0.00 0.00 55 1009.2
20260505200622 76 212 3.0 7.0 0.00 0.00 0.00 57 1009.2
20260505200422 76 209 3.0 7.0 0.00 0.00 0.00 56 1009.2
20260505200222 76 209 3.0 7.0 0.00 0.00 0.00 57 1009.3
20260505200022 76 212 3.0 7.0 0.00 0.00 0.00 57 1009.2
20260505195822 76 206 3.0 7.0 0.00 0.00 0.00 57 1009.3
20260505195623 75 210 3.0 7.0 0.00 0.00 0.00 58 1009.3
20260505195422 75 211 2.0 7.0 0.00 0.00 0.00 60 1009.3
20260505195243 76 203 2.0 7.0 0.00 0.00 0.00 58 1009.2
20260505195022 75 199 3.0 7.0 0.00 0.00 0.00 58 1009.3
20260505194822 75 206 3.0 7.0 0.00 0.00 0.00 58 1009.4
20260505194643 75 197 3.0 6.0 0.00 0.00 0.00 59 1009.4
20260505194422 75 200 4.0 6.0 0.00 0.00 0.00 59 1009.3
20260505194243 75 207 4.0 7.0 0.00 0.00 0.00 58 1009.2
20260505194022 75 210 4.0 7.0 0.00 0.00 0.00 59 1009.3
20260505193843 75 207 4.0 7.0 0.00 0.00 0.00 59 1009.3
20260505193622 75 213 4.0 9.0 0.00 0.00 0.00 58 1009.4
20260505193443 75 214 4.0 9.0 0.00 0.00 0.00 58 1009.4
20260505193222 75 211 3.0 9.0 0.00 0.00 0.00 58 1009.6
20260505193022 75 211 3.0 10.0 0.00 0.00 0.00 57 1009.5
20260505192822 75 205 3.0 10.0 0.00 0.00 0.00 56 1009.5
20260505192622 75 202 3.0 10.0 0.00 0.00 0.00 56 1009.6
20260505192422 75 200 3.0 10.0 0.00 0.00 0.00 56 1009.7
20260505192222 75 202 3.0 10.0 0.00 0.00 0.00 56 1009.8
20260505192043 75 202 3.0 7.0 0.00 0.00 0.00 56 1009.9
20260505191822 75 209 2.0 8.0 0.00 0.00 0.00 57 1009.9
20260505191644 75 213 2.0 8.0 0.00 0.00 0.00 58 1009.9
20260505191422 75 210 2.0 8.0 0.00 0.00 0.00 57 1009.9
20260505191222 75 213 2.0 8.0 0.00 0.00 0.00 57 1009.9
20260505191022 75 211 2.0 8.0 0.00 0.00 0.00 59 1009.9
20260505190822 75 211 3.0 6.0 0.00 0.00 0.00 59 1010.0
20260505190622 75 212 3.0 6.0 0.00 0.00 0.00 59 1010.0
20260505190422 75 215 3.0 8.0 0.00 0.00 0.00 58 1009.9
20260505190222 75 211 3.0 8.0 0.00 0.00 0.00 58 1010.0
20260505190022 74 210 3.0 8.0 0.00 0.00 0.00 60 1010.0
20260505185822 74 207 3.0 8.0 0.00 0.00 0.00 58 1009.9
20260505185643 74 206 3.0 8.0 0.00 0.00 0.00 58 1010.1
20260505185422 74 199 3.0 8.0 0.00 0.00 0.00 58 1010.0
20260505185243 74 198 3.0 8.0 0.00 0.00 0.00 58 1010.1
20260505185043 74 200 3.0 8.0 0.00 0.00 0.00 58 1010.1
20260505184822 74 195 3.0 8.0 0.00 0.00 0.00 59 1010.1
20260505184622 74 197 3.0 8.0 0.00 0.00 0.00 59 1010.1
20260505184422 74 201 3.0 7.0 0.00 0.00 0.00 60 1010.1
20260505184223 73 206 3.0 7.0 0.00 0.00 0.00 61 1010.2
20260505184022 73 207 3.0 6.0 0.00 0.00 0.00 60 1010.1
20260505183822 73 212 2.0 6.0 0.00 0.00 0.00 62 1010.1
20260505183622 72 214 2.0 6.0 0.00 0.00 0.00 61 1010.1
20260505183443 72 216 2.0 6.0 0.00 0.00 0.00 62 1010.1
20260505183222 72 217 2.0 7.0 0.00 0.00 0.00 63 1010.2
20260505183022 71 217 2.0 7.0 0.00 0.00 0.00 63 1010.2
20260505182822 71 217 2.0 7.0 0.00 0.00 0.00 64 1010.1
20260505182622 71 216 2.0 7.0 0.00 0.00 0.00 64 1010.1
20260505182422 71 214 2.0 7.0 0.00 0.00 0.00 63 1010.1
20260505182222 71 212 2.0 8.0 0.00 0.00 0.00 64 1010.2
20260505182022 71 208 2.0 8.0 0.00 0.00 0.00 65 1010.3
20260505181822 71 209 2.0 8.0 0.00 0.00 0.00 64 1010.2
20260505181622 71 206 2.0 8.0 0.00 0.00 0.00 64 1010.3
20260505181422 71 206 3.0 8.0 0.00 0.00 0.00 64 1010.3
20260505181243 71 206 3.0 6.0 0.00 0.00 0.00 64 1010.3
20260505181022 71 210 3.0 6.0 0.00 0.00 0.00 66 1010.3
20260505180822 71 212 3.0 7.0 0.00 0.00 0.00 66 1010.3
20260505180622 71 217 3.0 7.0 0.00 0.00 0.00 65 1010.3
20260505180422 71 218 2.0 7.0 0.00 0.00 0.00 65 1010.4
20260505180222 71 219 2.0 7.0 0.00 0.00 0.00 65 1010.3
20260505180022 71 218 2.0 7.0 0.00 0.00 0.00 65 1010.3
20260505175822 71 217 2.0 7.0 0.00 0.00 0.00 65 1010.5
20260505175622 71 214 2.0 7.0 0.00 0.00 0.00 66 1010.5
20260505175422 71 209 2.0 5.0 0.00 0.00 0.00 66 1010.5
20260505175222 71 211 2.0 5.0 0.00 0.00 0.00 66 1010.6
20260505175022 71 211 2.0 5.0 0.00 0.00 0.00 66 1010.6
20260505174822 71 209 3.0 6.0 0.00 0.07 0.00 65 1010.6
20260505174622 71 209 3.0 6.0 0.00 0.07 0.00 65 1010.7
20260505174422 71 210 3.0 6.0 0.00 0.07 0.00 65 1010.6
20260505174222 72 208 3.0 6.0 0.00 0.07 0.00 65 1010.6
20260505174022 72 212 3.0 6.0 0.00 0.07 0.00 64 1010.5
20260505173822 72 213 2.0 10.0 0.00 0.07 0.00 65 1010.5
20260505173644 72 213 2.0 10.0 0.00 0.07 0.00 65 1010.6
20260505173422 72 211 2.0 10.0 0.00 0.07 0.00 66 1010.7
20260505173223 72 208 1.0 10.0 0.00 0.07 0.00 65 1010.7
20260505173022 72 205 1.0 10.0 0.00 0.07 0.00 66 1010.7
20260505172822 72 205 1.0 5.0 0.00 0.07 0.00 66 1010.7
20260505172623 72 205 1.0 5.0 0.00 0.07 0.00 66 1010.7
20260505172443 72 204 2.0 5.0 0.00 0.07 0.00 66 1010.7
20260505172222 72 213 2.0 5.0 0.00 0.07 0.00 66 1010.6
20260505172022 72 208 2.0 4.0 0.00 0.07 0.00 68 1010.7
20260505171822 72 210 2.0 6.0 0.00 0.07 0.00 68 1010.7
20260505171622 72 209 3.0 6.0 0.00 0.07 0.00 67 1010.8
20260505171422 72 210 3.0 6.0 0.00 0.07 0.00 67 1010.8
20260505171222 72 211 3.0 6.0 0.00 0.07 0.00 66 1010.9
20260505171022 72 214 3.0 7.0 0.00 0.07 0.00 66 1010.9
20260505170822 72 211 3.0 7.0 0.00 0.07 0.00 66 1011.0
20260505170622 72 211 3.0 7.0 0.00 0.07 0.00 65 1011.1
20260505170422 73 210 3.0 7.0 0.00 0.07 0.00 65 1011.0
20260505170243 73 210 3.0 7.0 0.00 0.07 0.00 65 1011.0
20260505170022 73 211 3.0 7.0 0.00 0.07 0.00 65 1011.0
20260505165843 72 213 3.0 7.0 0.00 0.07 0.00 66 1010.9
20260505165643 72 212 3.0 7.0 0.00 0.07 0.00 67 1011.0
20260505165422 72 210 3.0 7.0 0.00 0.07 0.00 65 1010.9
20260505165222 72 210 3.0 7.0 0.00 0.07 0.00 66 1011.0
20260505165022 72 208 3.0 6.0 0.00 0.07 0.00 66 1011.0
20260505164843 72 207 3.0 6.0 0.00 0.07 0.00 66 1011.1
20260505164622 72 209 3.0 7.0 0.00 0.07 0.00 66 1011.2
20260505164422 72 211 3.0 7.0 0.00 0.07 0.00 67 1011.2
20260505164222 72 212 2.0 7.0 0.00 0.07 0.00 67 1011.2
20260505164022 72 209 3.0 7.0 0.00 0.07 0.00 66 1011.3
20260505163843 72 210 3.0 7.0 0.00 0.07 0.00 66 1011.4
20260505163623 72 210 3.0 6.0 0.00 0.07 0.00 68 1011.4
20260505163444 72 209 2.0 6.0 0.00 0.07 0.00 68 1011.4
20260505163223 71 210 2.0 6.0 0.00 0.07 0.00 67 1011.4
20260505163022 71 213 2.0 6.0 0.00 0.07 0.00 67 1011.4
20260505162822 71 211 2.0 5.0 0.00 0.07 0.00 67 1011.5
20260505162622 71 214 2.0 7.0 0.00 0.07 0.00 67 1011.5
20260505162422 71 221 2.0 7.0 0.00 0.07 0.00 68 1011.6
20260505162222 71 217 2.0 7.0 0.00 0.07 0.00 69 1011.7
20260505162022 71 218 2.0 7.0 0.00 0.07 0.00 68 1011.8
20260505161823 71 218 2.0 7.0 0.00 0.07 0.00 68 1011.9
20260505161622 71 216 2.0 5.0 0.00 0.07 0.00 67 1012.0
20260505161422 71 212 1.0 5.0 0.00 0.07 0.00 68 1012.1
20260505161222 71 211 1.0 5.0 0.00 0.07 0.00 68 1012.1
20260505161022 71 205 2.0 3.0 0.00 0.07 0.00 69 1012.0
20260505160822 71 207 2.0 3.0 0.00 0.07 0.00 68 1012.0
20260505160623 71 214 2.0 6.0 0.00 0.07 0.00 68 1012.1
20260505160443 71 217 2.0 6.0 0.00 0.07 0.00 69 1012.1
20260505160243 71 216 3.0 6.0 0.00 0.07 0.00 70 1012.1
20260505153222 70 214 2.0 7.0 0.00 0.07 0.00 68 1012.4
20260505153022 70 212 2.0 7.0 0.00 0.07 0.00 69 1012.4
20260505152843 70 212 2.0 5.0 0.00 0.07 0.00 70 1012.3
20260505152622 70 210 1.0 5.0 0.00 0.07 0.00 70 1012.2
20260505152422 69 213 1.0 5.0 0.00 0.07 0.00 71 1012.2
20260505152222 69 213 1.0 5.0 0.00 0.07 0.00 70 1012.2
20260505152022 69 212 1.0 4.0 0.00 0.07 0.00 71 1012.2
20260505151822 69 215 1.0 4.0 0.00 0.07 0.00 70 1012.2
20260505151625 69 219 2.0 4.0 0.00 0.07 0.00 71 1012.2
20260505151422 69 219 2.0 5.0 0.00 0.07 0.00 72 1012.2
20260505151243 69 220 2.0 5.0 0.00 0.07 0.00 72 1012.3
20260505151022 69 218 2.0 5.0 0.00 0.07 0.00 71 1012.3
20260505150822 68 214 2.0 5.0 0.00 0.07 0.00 71 1012.3
20260505150622 68 212 2.0 5.0 0.00 0.07 0.00 71 1012.3
20260505150422 68 210 2.0 5.0 0.00 0.07 0.00 71 1012.2
20260505150243 68 207 2.0 5.0 0.00 0.07 0.00 70 1012.2
20260505140622 66 0 0.0 0.0 0.00 0.07 0.00 74 1011.8
20260505140422 66 0 0.0 0.0 0.00 0.07 0.00 74 1011.8
20260505140222 66 0 0.0 0.0 0.00 0.07 0.00 74 1011.7
20260505130243 63 0 0.0 0.0 0.00 0.07 0.00 77 1011.4
20260505124822 63 0 0.0 0.0 0.00 0.07 0.00 78 1011.5
20260505124622 62 0 0.0 0.0 0.00 0.07 0.00 78 1011.5
20260505124422 62 0 0.0 0.0 0.00 0.07 0.00 78 1011.5
20260505124243 62 0 0.0 0.0 0.00 0.07 0.00 78 1011.4
20260505124022 62 0 0.0 0.0 0.00 0.07 0.00 79 1011.4
20260505123822 62 0 0.0 0.0 0.00 0.07 0.00 79 1011.4
20260505123643 62 0 0.0 0.0 0.00 0.07 0.00 79 1011.5
20260505123422 62 0 0.0 0.0 0.00 0.07 0.00 79 1011.4
20260505123222 62 0 0.0 0.0 0.00 0.07 0.00 79 1011.5
20260505123023 61 0 0.0 0.0 0.00 0.07 0.00 79 1011.5
20260505122823 61 0 0.0 0.0 0.00 0.07 0.00 80 1011.5
20260505122622 61 0 0.0 0.0 0.00 0.07 0.00 80 1011.4
20260505122422 61 0 0.0 0.0 0.00 0.07 0.00 80 1011.4
20260505122222 61 0 0.0 0.0 0.00 0.07 0.00 80 1011.5
20260505122043 61 0 0.0 0.0 0.00 0.07 0.00 80 1011.5
20260505121822 61 0 0.0 0.0 0.00 0.07 0.00 80 1011.6
20260505121622 61 0 0.0 0.0 0.00 0.07 0.00 80 1011.7
20260505121422 60 0 0.0 0.0 0.00 0.07 0.00 80 1011.6
20260505121223 60 0 0.0 0.0 0.00 0.07 0.00 80 1011.6
20260505121022 60 0 0.0 0.0 0.00 0.07 0.00 80 1011.6
20260505120822 60 0 0.0 0.0 0.00 0.07 0.00 80 1011.6
20260505120643 60 0 0.0 0.0 0.00 0.07 0.00 81 1011.5
20260505120422 60 0 0.0 0.0 0.00 0.07 0.00 81 1011.5
20260505120244 60 0 0.0 0.0 0.00 0.07 0.00 81 1011.4
20260505120022 60 0 0.0 0.0 0.00 0.07 0.00 81 1011.4
20260505115822 59 0 0.0 0.0 0.00 0.07 0.00 81 1011.3
20260505115643 59 0 0.0 0.0 0.00 0.07 0.00 81 1011.3
20260505115422 59 0 0.0 0.0 0.00 0.07 0.00 81 1011.3
20260505115222 59 0 0.0 0.0 0.00 0.07 0.00 81 1011.3
20260505115022 59 0 0.0 0.0 0.00 0.07 0.00 82 1011.2
20260505114822 59 0 0.0 0.0 0.00 0.07 0.00 82 1011.3
20260505114622 59 0 0.0 0.0 0.00 0.07 0.00 82 1011.2
20260505114422 58 0 0.0 0.0 0.00 0.07 0.00 82 1011.2
20260505114223 58 0 0.0 0.0 0.00 0.07 0.00 82 1011.2
20260505114022 58 0 0.0 0.0 0.00 0.07 0.00 82 1011.2
20260505113843 58 0 0.0 0.0 0.00 0.07 0.00 82 1011.1
20260505113622 58 0 0.0 0.0 0.00 0.07 0.00 83 1011.1
20260505113422 58 0 0.0 0.0 0.00 0.07 0.00 83 1011.1
20260505113223 57 0 0.0 0.0 0.00 0.07 0.00 84 1011.0
20260505113023 57 0 0.0 0.0 0.00 0.07 0.00 84 1011.0
20260505112822 57 0 0.0 0.0 0.00 0.07 0.00 84 1011.1
20260505112624 57 0 0.0 0.0 0.00 0.07 0.00 84 1011.1
20260505112422 57 0 0.0 0.0 0.00 0.07 0.00 84 1011.0
20260505112223 57 0 0.0 0.0 0.00 0.07 0.00 84 1011.1
20260505112022 57 0 0.0 0.0 0.00 0.07 0.00 84 1011.2
20260505111822 57 0 0.0 0.0 0.00 0.07 0.00 84 1011.1
20260505111624 57 0 0.0 0.0 0.00 0.07 0.00 84 1011.1
20260505111422 57 0 0.0 0.0 0.00 0.07 0.00 84 1011.1
20260505111222 57 0 0.0 0.0 0.00 0.07 0.00 83 1011.1
20260505111023 57 0 0.0 0.0 0.00 0.07 0.00 83 1011.1
20260505110822 57 0 0.0 0.0 0.00 0.07 0.00 83 1011.1
20260505110622 57 0 0.0 0.0 0.00 0.07 0.00 83 1011.0
20260505110422 57 0 0.0 0.0 0.00 0.07 0.00 83 1011.1
20260505110222 57 0 0.0 0.0 0.00 0.07 0.00 83 1011.0
20260505102222 56 0 0.0 0.0 0.00 0.07 0.00 83 1010.9
20260505102022 56 0 0.0 0.0 0.00 0.07 0.00 83 1010.8
20260505101844 56 0 0.0 0.0 0.00 0.07 0.00 83 1010.8
20260505101622 56 0 0.0 0.0 0.00 0.07 0.00 83 1010.7
20260505101422 56 0 0.0 0.0 0.00 0.07 0.00 83 1010.7
20260505101222 56 0 0.0 0.0 0.00 0.07 0.00 83 1010.7
20260505101023 56 0 0.0 0.0 0.00 0.07 0.00 83 1010.6
20260505100843 56 0 0.0 0.0 0.00 0.07 0.00 83 1010.7
20260505100622 56 0 0.0 0.0 0.00 0.07 0.00 83 1010.7
20260505100422 56 0 0.0 0.0 0.00 0.07 0.00 83 1010.7
20260505100222 56 0 0.0 0.0 0.00 0.07 0.00 83 1010.7
20260505100022 56 0 0.0 0.0 0.00 0.07 0.00 83 1010.7
20260505095822 56 0 0.0 0.0 0.00 0.07 0.00 83 1010.8
20260505095643 56 0 0.0 0.0 0.00 0.07 0.00 83 1010.7
20260505095443 56 0 0.0 0.0 0.00 0.07 0.00 83 1010.7
20260505095243 56 0 0.0 0.0 0.00 0.07 0.00 83 1010.7
20260505095022 56 0 0.0 0.0 0.00 0.07 0.00 83 1010.7
20260505094822 56 0 0.0 0.0 0.00 0.07 0.00 83 1010.7
20260505094622 57 0 0.0 0.0 0.00 0.07 0.00 82 1010.7
20260505094422 57 0 0.0 0.0 0.00 0.07 0.00 82 1010.7
20260505094222 57 0 0.0 0.0 0.00 0.07 0.00 82 1010.6
20260505094022 57 0 0.0 0.0 0.00 0.07 0.00 82 1010.6
20260505093822 57 0 0.0 0.0 0.00 0.07 0.00 82 1010.6
20260505093622 57 0 0.0 0.0 0.00 0.07 0.00 82 1010.6
20260505093422 57 0 0.0 0.0 0.00 0.07 0.00 82 1010.7
20260505093222 57 0 0.0 0.0 0.00 0.07 0.00 82 1010.7
20260505093022 57 0 0.0 0.0 0.00 0.07 0.00 81 1010.7
20260505092822 57 0 0.0 0.0 0.00 0.07 0.00 81 1010.7
20260505092644 57 0 0.0 0.0 0.00 0.07 0.00 81 1010.6
20260505092422 57 0 0.0 0.0 0.00 0.07 0.00 81 1010.7
20260505092222 58 0 0.0 0.0 0.00 0.07 0.00 81 1010.6
20260505092022 58 0 0.0 0.0 0.00 0.07 0.00 81 1010.6
20260505091822 58 0 0.0 0.0 0.00 0.07 0.00 81 1010.6
20260505091622 58 0 0.0 0.0 0.00 0.07 0.00 81 1010.6
20260505091422 58 0 0.0 0.0 0.00 0.07 0.00 81 1010.6
20260505091222 58 0 0.0 0.0 0.00 0.07 0.00 80 1010.7
20260505091022 58 0 0.0 0.0 0.00 0.07 0.00 80 1010.7
20260505090822 58 0 0.0 0.0 0.00 0.07 0.00 80 1010.6
20260505090643 58 0 0.0 0.0 0.00 0.07 0.00 80 1010.7
20260505090422 58 0 0.0 0.0 0.00 0.07 0.00 80 1010.7
20260505090222 58 0 0.0 0.0 0.00 0.07 0.00 80 1010.7
20260505090022 58 0 0.0 0.0 0.00 0.07 0.00 79 1010.7
20260505085822 58 0 0.0 0.0 0.00 0.07 0.00 79 1010.7
20260505085622 58 0 0.0 0.0 0.00 0.07 0.00 79 1010.7
20260505085422 58 0 0.0 0.0 0.00 0.07 0.00 79 1010.7
20260505085222 58 0 0.0 0.0 0.00 0.07 0.00 79 1010.7
20260505085022 58 0 0.0 0.0 0.00 0.07 0.00 79 1010.7
20260505084824 58 0 0.0 0.0 0.00 0.07 0.00 79 1010.7
20260505084622 58 0 0.0 0.0 0.00 0.07 0.00 79 1010.7
20260505084423 58 0 0.0 0.0 0.00 0.07 0.00 79 1010.7
20260505084243 58 0 0.0 0.0 0.00 0.07 0.00 79 1010.7
20260505084022 58 0 0.0 0.0 0.00 0.07 0.00 79 1010.7
20260505083823 58 0 0.0 0.0 0.00 0.07 0.00 79 1010.7
20260505083622 58 0 0.0 0.0 0.00 0.07 0.00 78 1010.7
20260505083422 59 0 0.0 0.0 0.00 0.07 0.00 78 1010.7
20260505083222 59 0 0.0 0.0 0.00 0.07 0.00 78 1010.7
20260505083022 59 0 0.0 0.0 0.00 0.07 0.00 78 1010.6
20260505082823 59 0 0.0 0.0 0.00 0.07 0.00 78 1010.6
20260505082622 59 0 0.0 0.0 0.00 0.07 0.00 78 1010.6
20260505082422 59 0 0.0 0.0 0.00 0.07 0.00 78 1010.6
20260505082222 59 0 0.0 0.0 0.00 0.07 0.00 78 1010.6
20260505082022 59 0 0.0 0.0 0.00 0.07 0.00 77 1010.6
20260505081823 59 0 0.0 0.0 0.00 0.07 0.00 77 1010.5
20260505081622 59 0 0.0 0.0 0.00 0.07 0.00 77 1010.5
20260505081422 59 0 0.0 0.0 0.00 0.07 0.00 77 1010.5
20260505081222 59 0 0.0 0.0 0.00 0.07 0.00 77 1010.5
20260505081022 59 0 0.0 0.0 0.00 0.07 0.00 77 1010.4
20260505080843 60 0 0.0 0.0 0.00 0.07 0.00 77 1010.5
20260505080622 60 0 0.0 0.0 0.00 0.07 0.00 77 1010.5
20260505080422 60 0 0.0 0.0 0.00 0.07 0.00 76 1010.4
20260505080243 60 0 0.0 0.0 0.00 0.07 0.00 77 1010.4
20260505080022 60 0 0.0 0.0 0.00 0.07 0.00 76 1010.4
20260505075822 60 0 0.0 0.0 0.00 0.07 0.00 76 1010.4
20260505075643 60 0 0.0 0.0 0.00 0.07 0.00 76 1010.4
20260505075422 60 0 0.0 0.0 0.00 0.07 0.00 76 1010.3
20260505075222 60 0 0.0 0.0 0.00 0.07 0.00 76 1010.4
20260505075022 60 0 0.0 0.0 0.00 0.07 0.00 75 1010.3
20260505074822 60 0 0.0 0.0 0.00 0.07 0.00 75 1010.4
20260505074623 60 0 0.0 0.0 0.00 0.07 0.00 75 1010.3
20260505074422 60 0 0.0 0.0 0.00 0.07 0.00 75 1010.4
20260505074222 60 0 0.0 0.0 0.00 0.07 0.00 75 1010.4
20260505074022 60 0 0.0 0.0 0.00 0.07 0.00 75 1010.3
20260505073822 60 0 0.0 0.0 0.00 0.07 0.00 75 1010.3
20260505073622 60 0 0.0 0.0 0.00 0.07 0.00 75 1010.4
20260505073422 60 0 0.0 0.0 0.00 0.07 0.00 76 1010.3
20260505073222 60 0 0.0 0.0 0.00 0.07 0.00 75 1010.4
20260505073022 60 0 0.0 0.0 0.00 0.07 0.00 75 1010.3
20260505072822 60 0 0.0 0.0 0.00 0.07 0.00 75 1010.3
20260505072622 60 0 0.0 0.0 0.00 0.07 0.00 75 1010.3
20260505072422 60 0 0.0 0.0 0.00 0.07 0.00 75 1010.3
20260505072222 60 0 0.0 0.0 0.00 0.07 0.00 75 1010.3
20260505072022 60 0 0.0 0.0 0.00 0.07 0.00 75 1010.3
20260505071822 60 0 0.0 0.0 0.00 0.07 0.00 75 1010.3
20260505071623 61 0 0.0 0.0 0.00 0.07 0.00 75 1010.2
20260505071422 61 0 0.0 0.0 0.00 0.07 0.00 75 1010.3
20260505071244 61 0 0.0 0.0 0.00 0.07 0.00 75 1010.3
20260505071022 61 0 0.0 0.0 0.00 0.07 0.00 75 1010.3
20260505070822 61 0 0.0 0.0 0.00 0.07 0.00 75 1010.4
20260505070622 61 0 0.0 0.0 0.00 0.07 0.00 74 1010.3
20260505070422 61 0 0.0 0.0 0.00 0.07 0.00 74 1010.3
20260505070222 61 0 0.0 0.0 0.00 0.07 0.00 74 1010.3
20260505070022 61 0 0.0 0.0 0.00 0.07 0.00 74 1010.4
20260505065822 61 0 0.0 0.0 0.00 0.07 0.00 74 1010.4
20260505065643 61 0 0.0 0.0 0.00 0.07 0.00 74 1010.4
20260505065422 61 0 0.0 0.0 0.00 0.07 0.00 74 1010.4
20260505065222 61 0 0.0 0.0 0.00 0.07 0.00 73 1010.5
20260505065022 61 0 0.0 0.0 0.00 0.07 0.00 73 1010.4
20260505064822 61 0 0.0 0.0 0.00 0.07 0.00 73 1010.4
20260505064622 62 0 0.0 0.0 0.00 0.07 0.00 73 1010.4
20260505064422 62 0 0.0 0.0 0.00 0.07 0.00 73 1010.4
20260505064222 62 0 0.0 0.0 0.00 0.07 0.00 73 1010.3
20260505064022 62 0 0.0 0.0 0.00 0.07 0.00 73 1010.4
20260505063822 62 0 0.0 0.0 0.00 0.07 0.00 72 1010.4
20260505063622 62 0 0.0 0.0 0.00 0.07 0.00 72 1010.4
20260505063422 62 0 0.0 0.0 0.00 0.07 0.00 72 1010.4
20260505063222 62 0 0.0 0.0 0.00 0.07 0.00 72 1010.4
20260505063023 62 0 0.0 0.0 0.00 0.07 0.00 72 1010.4
20260505062822 62 0 0.0 0.0 0.00 0.07 0.00 71 1010.5
20260505062643 62 0 0.0 0.0 0.00 0.07 0.00 71 1010.5
20260505062422 62 0 0.0 0.0 0.00 0.07 0.00 71 1010.5
20260505062222 63 0 0.0 0.0 0.00 0.07 0.00 71 1010.5
20260505062023 63 0 0.0 0.0 0.00 0.07 0.00 71 1010.5
20260505061843 63 0 0.0 0.0 0.00 0.07 0.00 71 1010.5
20260505061622 63 0 0.0 0.0 0.00 0.07 0.00 70 1010.5
20260505061424 63 0 0.0 0.0 0.00 0.07 0.00 70 1010.5
20260505061222 63 0 0.0 0.0 0.00 0.07 0.00 70 1010.5
20260505061022 63 0 0.0 0.0 0.00 0.07 0.00 70 1010.5
20260505060822 63 0 0.0 0.0 0.00 0.07 0.00 70 1010.6
20260505060622 64 0 0.0 0.0 0.00 0.07 0.00 70 1010.6
20260505060422 64 0 0.0 0.0 0.00 0.07 0.00 70 1010.6
20260505060223 64 0 0.0 0.0 0.00 0.07 0.00 70 1010.6
20260505060022 64 0 0.0 0.0 0.00 0.07 0.00 69 1010.6
20260505055822 64 0 0.0 0.0 0.00 0.07 0.00 69 1010.7
20260505055623 64 0 0.0 0.0 0.00 0.07 0.00 69 1010.7
20260505055422 64 0 0.0 0.0 0.00 0.07 0.00 69 1010.6
20260505055222 64 0 0.0 0.0 0.00 0.07 0.00 69 1010.7
20260505055022 64 0 0.0 0.0 0.00 0.07 0.00 69 1010.7
20260505054822 64 0 0.0 0.0 0.00 0.07 0.00 68 1010.7
20260505054622 64 0 0.0 0.0 0.00 0.07 0.00 69 1010.6
20260505054422 64 187 0.0 1.0 0.00 0.07 0.00 69 1010.7
20260505054222 64 194 0.0 1.0 0.00 0.07 0.00 68 1010.6
20260505054022 64 201 0.0 1.0 0.00 0.07 0.00 68 1010.6
20260505053822 64 207 0.0 1.0 0.00 0.07 0.00 68 1010.6
20260505053644 64 214 0.0 1.0 0.00 0.07 0.00 68 1010.7
20260505053422 65 217 0.0 1.0 0.00 0.07 0.00 68 1010.6
20260505053222 65 220 0.0 1.0 0.00 0.07 0.00 68 1010.6
20260505053022 65 220 0.0 1.0 0.00 0.07 0.00 68 1010.6
20260505052822 65 220 0.0 1.0 0.00 0.07 0.00 68 1010.6
20260505052622 65 222 0.0 1.0 0.00 0.07 0.00 68 1010.7
20260505052422 65 223 0.0 1.0 0.00 0.07 0.00 67 1010.7
20260505052243 65 223 0.0 1.0 0.00 0.07 0.00 67 1010.7
20260505052022 65 223 0.0 1.0 0.00 0.07 0.00 67 1010.8
20260505051822 65 223 0.0 1.0 0.00 0.07 0.00 67 1010.8
20260505051622 65 223 0.0 1.0 0.00 0.07 0.00 67 1010.8
20260505051422 65 223 0.0 1.0 0.00 0.07 0.00 67 1010.8
20260505051222 65 223 0.0 1.0 0.00 0.07 0.00 67 1010.9
20260505051022 65 223 0.0 1.0 0.00 0.07 0.00 67 1010.9
20260505050822 65 223 0.0 1.0 0.00 0.07 0.00 66 1011.0
20260505050623 65 223 0.0 1.0 0.00 0.07 0.00 67 1010.9
20260505050422 65 223 0.0 1.0 0.00 0.07 0.00 66 1010.9
20260505050243 65 223 0.0 1.0 0.00 0.07 0.00 66 1011.0
20260505041643 67 220 0.0 3.0 0.00 0.07 0.07 64 1010.6
20260505041422 67 220 0.0 3.0 0.00 0.07 0.07 63 1010.6
20260505041244 67 217 0.0 2.0 0.00 0.07 0.07 63 1010.6
20260505041022 67 220 0.0 2.0 0.00 0.07 0.07 63 1010.6
20260505040822 67 222 0.0 2.0 0.00 0.07 0.07 63 1010.5
20260505040622 67 222 0.0 2.0 0.00 0.07 0.07 63 1010.5
20260505040444 67 222 0.0 2.0 0.00 0.07 0.07 63 1010.6
20260505040222 68 224 0.0 2.0 0.00 0.07 0.07 63 1010.5
20260505040023 68 224 0.0 2.0 0.00 0.07 0.07 63 1010.5
20260505035822 68 220 0.0 2.0 0.00 0.07 0.07 63 1010.4
20260505035622 68 221 0.0 2.0 0.00 0.07 0.07 63 1010.5
20260505035443 68 221 1.0 2.0 0.00 0.07 0.07 63 1010.4
20260505035244 68 222 1.0 2.0 0.00 0.07 0.07 62 1010.4
20260505035022 68 221 1.0 2.0 0.00 0.07 0.07 62 1010.4
20260505034822 68 218 1.0 4.0 0.00 0.07 0.07 62 1010.4
20260505034622 68 220 1.0 4.0 0.00 0.07 0.07 62 1010.4
20260505034422 68 220 1.0 4.0 0.00 0.07 0.07 62 1010.4
20260505034243 68 220 1.0 4.0 0.00 0.07 0.07 62 1010.3
20260505034022 68 220 1.0 4.0 0.00 0.07 0.07 62 1010.3
20260505033822 68 222 1.0 4.0 0.00 0.07 0.07 62 1010.3
20260505033622 68 220 1.0 4.0 0.00 0.07 0.07 62 1010.3
20260505033422 69 220 1.0 4.0 0.00 0.07 0.07 61 1010.2
20260505033222 69 219 1.0 4.0 0.00 0.07 0.07 61 1010.2
20260505033022 69 219 1.0 5.0 0.00 0.07 0.07 61 1010.2
20260505032843 69 220 1.0 5.0 0.00 0.07 0.07 61 1010.2
20260505032622 69 215 1.0 5.0 0.00 0.07 0.07 61 1010.2
20260505032422 69 216 1.0 5.0 0.00 0.07 0.07 61 1010.2
20260505032222 69 216 1.0 5.0 0.00 0.07 0.07 61 1010.2
20260505032022 69 211 1.0 4.0 0.00 0.07 0.07 61 1010.2
20260505031822 69 211 1.0 4.0 0.00 0.07 0.07 61 1010.2
20260505031622 69 213 1.0 4.0 0.00 0.07 0.07 61 1010.2
20260505031422 69 207 1.0 4.0 0.00 0.07 0.07 61 1010.2
20260505031222 69 206 1.0 4.0 0.00 0.07 0.07 61 1010.2
20260505031024 69 207 1.0 3.0 0.00 0.07 0.07 61 1010.2
20260505030844 69 210 1.0 3.0 0.00 0.07 0.07 61 1010.1
20260505030622 69 210 1.0 3.0 0.00 0.07 0.07 61 1010.1
20260505030444 69 215 1.0 3.0 0.00 0.07 0.07 61 1009.9
20260505030244 69 221 1.0 3.0 0.00 0.07 0.07 61 1009.9
20260505030023 69 225 1.0 3.0 0.00 0.07 0.07 61 1009.8